Miscellaneous Local Product
Issued by NWS Hastings, NE

Home | Current Version | Previous Version | Graphics & Text | Print | Product List | Glossary On
Versions: 1 2 3 4 5 6 7 8 9 10 11 12 13 14 15 16 17 18 19 20 21 22 23 24 25 26 27 28 29 30 31 32 33 34 35 36 37 38 39 40 41 42 43 44 45 46 47 48 49 50
000
AXUS43 KGID 260402
MISGRI

GID CWA HOURLY WEATHER ROUNDUP
NATIONAL WEATHER SERVICE HASTINGS NE
1000 PM CST SAT FEB 25 2017

NOTE: "FAIR" INDICATES FEW OR NO CLOUDS BELOW 12,000 FEET WITH NO
SIGNIFICANT WEATHER AND/OR OBSTRUCTIONS TO VISIBILITY.

...SOUTH CENTRAL NEBRASKA...

CITY           SKY/WX    TMP DP  RH WIND       PRES   REMARKS
GRAND ISLAND   CLOUDY    28  22  78 W8        29.88S WCI  20
HASTINGS       CLEAR     28  21  75 W3        29.89S
KEARNEY        CLOUDY    28  21  74 SW6       29.89R WCI  22
ORD            CLEAR     24  16  71 SW8       29.83S WCI  15
YORK           CLEAR     28  25  86 SW8       29.89S WCI  20
AURORA         CLEAR     26  22  85 W7        29.88S WCI  18
LEXINGTON      CLOUDY    26  19  73 W5        29.87F WCI  21
HOLDREGE       MOCLDY    30  16  56 W10       29.88S WCI  21
HEBRON         CLEAR     32  26  79 CALM      29.92S

...NEBRASKA PANHANDLE...

CITY           SKY/WX    TMP DP  RH WIND       PRES   REMARKS
CHADRON        CLEAR     12   3  67 W3        29.75R
ALLIANCE       CLEAR     16   8  71 W8        29.75S WCI   5
SCOTTSBLUFF    CLEAR     24  10  55 W15       29.78R WCI  11
SIDNEY         CLOUDY    22  10  60 W12       29.81R WCI  10

...WESTERN AND NORTH CENTRAL NEBRASKA...

CITY           SKY/WX    TMP DP  RH WIND       PRES   REMARKS
VALENTINE      MOCLDY    14   9  80 SW8       29.77S WCI   3
AINSWORTH      CLEAR     19  15  84 SW9       29.78R WCI   8
ONEILL         CLOUDY    24  19  79 SW6       29.80F WCI  17
BROKEN BOW     CLEAR     22  17  81 W9        29.83S WCI  12
IMPERIAL       CLOUDY    30  16  56 S7        29.85F WCI  23
NORTH PLATTE   CLOUDY    23  16  74 S3        29.84F
MCCOOK         CLOUDY    27  14  58 W7        29.89R WCI  19

...EASTERN NEBRASKA...

CITY           SKY/WX    TMP DP  RH WIND       PRES   REMARKS
NORFOLK        CLOUDY    22  18  85 CALM      29.84S
SO SIOUX CITY  CLOUDY    20  14  77 E5        29.87F WCI  13
TEKAMAH        CLOUDY    22  17  81 S5        29.89F WCI  16
COLUMBUS       CLOUDY    30  23  74 SW7       29.88R WCI  23
ALBION         CLOUDY    29  20  69 CALM      29.84F
OMAHA EPPLEY   PTCLDY    31  21  66 S12       29.91F WCI  22
OFFUTT AFB     CLOUDY    29  21  70 SE5       29.91F WCI  24
MILLARD        PTCLDY    34  23  64 S5        29.90F WCI  30
LINCOLN        CLEAR     33  26  75 S7        29.91F WCI  27
NEBRASKA CITY  CLOUDY    34  18  53 S12       29.94S WCI  25
BEATRICE       PTCLDY    33  22  64 S7        29.92F WCI  26
FALLS CITY     CLOUDY    36  17  46 S10       29.97R WCI  28

...NORTHERN KANSAS...

CITY           SKY/WX    TMP DP  RH WIND       PRES   REMARKS
GOODLAND       CLOUDY    19  10  68 N3        29.85R
HILL CITY      MOCLDY    29  11  47 N5        29.91R WCI  24
PHILLIPSBURG   MOCLDY    27  18  69 SW5       29.91R WCI  21
SMITH CENTER   CLEAR     28  18  64 CALM      29.91S
HAYS           PTCLDY    37  14  38 S13       29.92F WCI  29
RUSSELL        PTCLDY    33  13  43 W5        29.91R WCI  29
CONCORDIA      CLEAR     34  16  47 S16       29.93R WCI  24
SALINA         CLEAR     34  16  47 S8        29.95F WCI  27
TOPEKA         CLEAR     36  13  38 S5        30.01F WCI  32



USA.gov is the U.S. government's official web portal to all federal, state and local government web resources and services.